Flag for India Weather past 2 weeks in Vasai-Virar, Maharashtra, India

Now
82 °F

Passing clouds.


Feels Like: 82 °F
Forecast: 69 / 89 °F
Wind: 7 mph from North

Location: Bombay / Santacruz

Current Time: Dec 19, 2014 at 9:32:44 PM

Latest Report: Dec 19, 2014 at 8:40 PM


Visibility: 1 mi

Pressure: 29.98 "Hg

Humidity: 42%

Dew point: 57 °F

Location of Vasai-VirarLocation

Historic Weather in Vasai-Virar — Graph

°F

Vasai-Virar temperature yesterday

Maximum temperature yesterday: 86 °F (at 2:40 PM)
Minimum temperature yesterday: 68 °F (at 6:40 AM)
Average temperature yesterday: 77 °F

Past Weeks' High & Low Weather Summary

 TemperatureHumidityPressure
High93 °F (Dec 5, 1:40 PM)94% (Dec 12, 8:10 AM)30.04 "Hg (Dec 12, 8:10 AM)
Low66 °F (Dec 15, 4:10 AM)18% (Dec 15, 2:40 PM)29.80 "Hg (Dec 10, 2:40 PM)
Average81 °F49%29.92 "Hg
* Reported Dec 4 7:40 PM — Dec 19 8:10 PM, Vasai-Virar, Weather by CustomWeather, © 2014

Note: Actual official high and low records may vary slightly from our data, if they occured in-between our weather recording intervals... More about our weather records

Advertising

Vasai-Virar weather history for previous 24 hours

 ConditionsComfort  
Time TempWeatherWind HumidityBarometerVisibility
8:10 PM
Dec 19
81 °FPassing clouds.5 mph48%29.98 "Hg1 mi
7:40 PM82 °FPassing clouds.6 mph45%29.98 "Hg1 mi
7:10 PM82 °FPassing clouds.9 mph42%29.98 "Hg1 mi
6:40 PM82 °FPassing clouds.8 mph45%29.95 "Hg1 mi
6:10 PM81 °FPassing clouds.6 mph48%29.95 "Hg2 mi
5:10 PM88 °FPassing clouds.9 mph33%29.92 "Hg2 mi
4:40 PM88 °FPassing clouds.9 mph27%29.92 "Hg2 mi
4:10 PM88 °FPassing clouds.6 mph29%29.92 "Hg2 mi
3:40 PM90 °FPassing clouds.7 mph27%29.92 "Hg2 mi
3:10 PM90 °FPassing clouds.7 mph27%29.95 "Hg2 mi
1:40 PM86 °FPassing clouds.9 mph29%29.98 "Hg1 mi
1:10 PM86 °FPassing clouds.5 mph27%29.98 "Hg1 mi
12:40 PM86 °FPassing clouds.10 mph27%30.01 "Hg2 mi
12:10 PM84 °FPassing clouds.10 mph29%30.01 "Hg2 mi
11:10 AM82 °FPassing clouds.8 mph26%30.04 "Hg2 mi
10:40 AM81 °FPassing clouds.10 mph28%30.04 "Hg1 mi
10:10 AM81 °FPassing clouds.9 mph26%30.04 "Hg1 mi
9:40 AM79 °FPassing clouds.9 mph28%30.04 "Hg1 mi
9:10 AM77 °FPassing clouds.9 mph28%30.04 "Hg1 mi
8:40 AM75 °FPassing clouds.13 mph29%30.04 "Hg1 mi
8:10 AM73 °FPassing clouds.12 mph29%30.01 "Hg1 mi
7:40 AM73 °FPassing clouds.10 mph29%30.01 "Hg2 mi
7:10 AM73 °FPassing clouds.12 mph27%30.01 "Hg2 mi
6:40 AM73 °FPassing clouds.12 mph27%29.98 "Hg2 mi
5:40 AM73 °FClear.10 mph29%29.98 "Hg2 mi
5:10 AM72 °FClear.7 mph31%29.98 "Hg2 mi
4:40 AM73 °FClear.12 mph29%29.98 "Hg2 mi
4:10 AM73 °FClear.9 mph31%29.98 "Hg2 mi
3:40 AM73 °FClear.9 mph33%29.98 "Hg2 mi
2:40 AM73 °FClear.6 mph36%29.98 "Hg2 mi
2:10 AM75 °FClear.9 mph34%29.98 "Hg2 mi
1:40 AM73 °FClear.5 mph38%30.01 "Hg2 mi
1:10 AM75 °FClear.No wind36%30.01 "Hg2 mi
12:40 AM75 °FClear.6 mph36%30.01 "Hg2 mi
12:10 AM77 °FClear.8 mph32%30.01 "Hg2 mi
11:40 PM
Dec 18
77 °FClear.7 mph34%30.01 "Hg1 mi
11:10 PM77 °FClear.5 mph36%30.01 "Hg1 mi
10:40 PM77 °FClear.3 mph42%30.01 "Hg1 mi
10:10 PM77 °FClear.No wind44%30.01 "Hg1 mi
9:40 PM79 °FPassing clouds.7 mph45%30.01 "Hg1 mi
Weather by CustomWeather, © 2014

See weather overviewHow to use our weather pages